THY284 LGAV-LTFM

Flight info

Callsign THY284
Flight time N/A
Altitude 35000
Route KRO UN604 INBET
Aircraft B77L/H-SDE1E2E3FGHIJ2J3J4J5M1RWXY/LB1D1

Departure

Time 2026-05-07 14:19
Airport Athens Eleftherios Venizelos International Airport (LGAV)

Arrival

Time N/A
Airport İstanbul Airport (LTFM)
Time Latitude Longitude Altitude Speed Heading
2026-05-07 13:37 37.93279 23.94551 308 ft 0 kts 308°
2026-05-07 14:08 37.93278 23.94553 306 ft 2 kts 308°
2026-05-07 14:08 37.93260 23.94575 307 ft 4 kts 329°
2026-05-07 14:08 37.93245 23.94584 305 ft 4 kts 346°
2026-05-07 14:09 37.93219 23.94587 306 ft 4 kts 13°
2026-05-07 14:09 37.93199 23.94577 304 ft 0 kts 37°
2026-05-07 14:11 37.93206 23.94584 305 ft 6 kts 37°
2026-05-07 14:11 37.93279 23.94654 310 ft 5 kts 37°
2026-05-07 14:12 37.93298 23.94672 309 ft 6 kts 37°
2026-05-07 14:12 37.93352 23.94724 308 ft 14 kts 37°
2026-05-07 14:12 37.93429 23.94799 308 ft 13 kts 43°
2026-05-07 14:12 37.93439 23.94914 308 ft 14 kts 76°
2026-05-07 14:13 37.93504 23.94998 308 ft 13 kts 37°
2026-05-07 14:13 37.93531 23.95023 309 ft 1 kts 37°
2026-05-07 14:13 37.93535 23.95027 309 ft 1 kts 37°
2026-05-07 14:13 37.93542 23.95034 307 ft 4 kts 37°
2026-05-07 14:14 37.93603 23.95092 307 ft 19 kts 37°
2026-05-07 14:14 37.93655 23.95215 306 ft 16 kts 105°
2026-05-07 14:14 37.93703 23.95330 306 ft 15 kts 39°
2026-05-07 14:14 37.93791 23.95422 304 ft 18 kts 37°
2026-05-07 14:15 37.93901 23.95521 303 ft 20 kts 37°
2026-05-07 14:15 37.94008 23.95622 306 ft 18 kts 37°
2026-05-07 14:15 37.94114 23.95722 305 ft 21 kts 37°
2026-05-07 14:15 37.94235 23.95836 306 ft 22 kts 37°
2026-05-07 14:16 37.94363 23.95958 306 ft 24 kts 37°
2026-05-07 14:16 37.94502 23.96090 307 ft 22 kts 37°
2026-05-07 14:16 37.94630 23.96213 305 ft 24 kts 37°
2026-05-07 14:16 37.94774 23.96348 307 ft 27 kts 37°
2026-05-07 14:17 37.94930 23.96495 308 ft 29 kts 37°
2026-05-07 14:17 37.95085 23.96643 310 ft 28 kts 37°
2026-05-07 14:17 37.95236 23.96788 310 ft 25 kts 36°
2026-05-07 14:17 37.95366 23.96913 310 ft 22 kts 44°
2026-05-07 14:18 37.95307 23.97023 315 ft 19 kts 170°
2026-05-07 14:18 37.95197 23.97026 317 ft 15 kts 204°
2026-05-07 14:18 37.95166 23.96999 317 ft 0 kts 217°
2026-05-07 14:18 37.95150 23.96983 318 ft 11 kts 217°
2026-05-07 14:19 37.94901 23.96749 312 ft 89 kts 217°
2026-05-07 14:19 37.94157 23.96051 296 ft 172 kts 214°
2026-05-07 14:19 37.93077 23.95066 665 ft 203 kts 216°
2026-05-07 14:19 37.91931 23.93913 1441 ft 212 kts 216°
2026-05-07 14:20 37.90582 23.93158 2248 ft 216 kts 189°
2026-05-07 14:20 37.89127 23.92586 2985 ft 223 kts 212°
2026-05-07 14:20 37.87869 23.91552 4011 ft 214 kts 211°
2026-05-07 14:20 37.86548 23.90586 4803 ft 220 kts 209°
2026-05-07 14:21 37.85195 23.89640 5588 ft 228 kts 209°
2026-05-07 14:21 37.83798 23.88678 6359 ft 229 kts 210°
2026-05-07 14:21 37.82379 23.87709 6919 ft 245 kts 210°
2026-05-07 14:21 37.80787 23.86625 7002 ft 272 kts 210°
2026-05-07 14:22 37.79123 23.85499 7005 ft 271 kts 209°
2026-05-07 14:22 37.77458 23.84391 6981 ft 269 kts 206°
2026-05-07 14:22 37.75623 23.83979 6996 ft 276 kts 172°
2026-05-07 14:22 37.73871 23.84947 6993 ft 281 kts 138°
2026-05-07 14:23 37.72828 23.87013 7108 ft 284 kts 103°
2026-05-07 14:23 37.72880 23.89473 7507 ft 286 kts 69°
2026-05-07 14:23 37.73821 23.91688 8056 ft 289 kts 56°
2026-05-07 14:23 37.74940 23.93826 8574 ft 294 kts 55°
2026-05-07 14:24 37.76080 23.95984 9055 ft 296 kts 54°
2026-05-07 14:24 37.77215 23.98134 9569 ft 298 kts 55°
2026-05-07 14:24 37.78360 24.00315 10078 ft 299 kts 55°
2026-05-07 14:24 37.79508 24.02517 10547 ft 301 kts 54°
2026-05-07 14:25 37.80659 24.04738 11030 ft 303 kts 55°
2026-05-07 14:25 37.81814 24.06975 11524 ft 305 kts 54°
2026-05-07 14:25 37.82977 24.09238 12034 ft 308 kts 54°
2026-05-07 14:25 37.84147 24.11519 12503 ft 311 kts 54°
2026-05-07 14:26 37.85334 24.13837 12997 ft 315 kts 54°
2026-05-07 14:26 37.86534 24.16185 13495 ft 319 kts 54°
2026-05-07 14:26 37.87743 24.18555 13988 ft 322 kts 53°
2026-05-07 14:26 37.88951 24.20925 14432 ft 325 kts 53°
2026-05-07 14:27 37.90182 24.23343 14833 ft 330 kts 54°
2026-05-07 14:27 37.91433 24.25803 15240 ft 333 kts 54°
2026-05-07 14:27 37.92690 24.28276 15653 ft 336 kts 54°
2026-05-07 14:27 37.93966 24.30789 16074 ft 339 kts 54°
2026-05-07 14:28 37.95249 24.33319 16494 ft 341 kts 54°
2026-05-07 14:28 37.96538 24.35861 16919 ft 344 kts 54°
2026-05-07 14:28 37.97830 24.38413 17348 ft 347 kts 54°
2026-05-07 14:28 37.99137 24.40990 17801 ft 348 kts 53°
2026-05-07 14:29 38.00375 24.43217 18202 ft 350 kts 50°